Courtland, AL

4:41 AM CDT on September 26, 2016 (GMT -0500)
Courtland

Weather History for K9A4 - March, 2013

Change the Weather History Date:

Monday, March 11, 2013

  Actual Average (KMSL) Record (KMSL)
Temperature  
Mean Temperature 48 °F 52 °F  
Max Temperature 60 °F 63 °F 82 °F (1939)
Min Temperature 35 °F 41 °F 18 °F (1932)
Degree Days  
Heating Degree Days 16 13  
Month to date heating degree days 162  
Since 1 July heating degree days 2697  
Cooling Degree Days 0 0  
Month to date cooling degree days 0  
Year to date cooling degree days 1  
Moisture  
Dew Point 43 °F    
Average Humidity 86    
Maximum Humidity 100    
Minimum Humidity 66    
Precipitation  
Precipitation 0.00 in 0.14 in 3.49 in (1963)
Month to date precipitation 1.68  
Year to date precipitation 10.95  
Snow  
Snow 0.00 in - - ()
Month to date snowfall  
Since 1 July snowfall  
Snow Depth -    
Sea Level Pressure  
Sea Level Pressure 29.90 in    
Wind  
Wind Speed 10 mph (West)    
Max Wind Speed 15 mph    
Max Gust Speed 25 mph    
Visibility 9 miles    
Events Rain    
T = Trace of Precipitation, MM = Missing Value Source: NWS Daily Summary

Daily Weather History Graph

Daily Weather History Graph

Search for Another Location

Airport or City:

Trip Planner

Search our weather history database for the weather conditions in past years. The results will help you decide how hot, cold, wet, or windy it might be!

Date:

Astronomy

Mar. 11, 2013 Rise Set
Actual Time 7:05 AM CDT 6:54 PM CDT
Civil Twilight 6:39 AM CDT 7:19 PM CDT
Nautical Twilight 6:10 AM CDT 7:48 PM CDT
Astronomical Twilight 5:41 AM CDT 8:17 PM CDT
Moon 6:39 AM CDT (3/11) 7:03 PM CDT (3/11)
Length of Visible Light 12h 39m
Length of Day
11h 48m
Waning Crescent, 0% of the Moon is Illuminated
Mar 11
Waning Crescent
Mar 11
New
Mar 19
First Quarter
Mar 27
Full
Apr 2
Last Quarter

Hourly Weather History & Observations

Time (CDT) Temp. Windchill Dew Point Humidity Pressure Visibility Wind Dir Wind Speed Gust Speed Precip Events Conditions
12:15 AM 60.8 °F - 53.6 °F 77% 29.86 in 10.0 mi South 15.0 mph 19.6 mph N/A Rain Light Rain
12:35 AM 60.8 °F - 53.6 °F 77% 29.85 in 10.0 mi South 11.5 mph 25.3 mph N/A Rain Rain
12:55 AM 60.8 °F - 53.6 °F 77% 29.87 in 7.0 mi South 12.7 mph 20.7 mph N/A Rain Rain
1:15 AM 59.0 °F - 51.8 °F 77% 29.86 in 7.0 mi South 11.5 mph 21.9 mph N/A Rain Rain
1:35 AM 59.0 °F - 51.8 °F 77% 29.85 in 7.0 mi South 15.0 mph 20.7 mph N/A Rain Rain
1:55 AM 59.0 °F - 50.0 °F 72% 29.86 in 10.0 mi South 11.5 mph 18.4 mph N/A Rain Rain
2:15 AM 57.2 °F - 51.8 °F 82% 29.86 in 7.0 mi South 10.4 mph - N/A Rain Rain
2:35 AM 55.4 °F - 51.8 °F 88% 29.85 in 7.0 mi SW 6.9 mph - N/A Rain Heavy Rain
2:55 AM 55.4 °F - 53.6 °F 94% 29.86 in 7.0 mi West 6.9 mph - N/A Rain Heavy Rain
3:15 AM 53.6 °F - 53.6 °F 100% 29.84 in 7.0 mi WSW 4.6 mph - N/A Rain Rain
3:35 AM 53.6 °F - 53.6 °F 100% 29.86 in 7.0 mi SW 5.8 mph - N/A Rain Rain
3:55 AM 53.6 °F - 53.6 °F 100% 29.85 in 7.0 mi SW 6.9 mph - N/A Rain Light Rain
4:15 AM 53.6 °F - 53.6 °F 100% 29.86 in 7.0 mi South 6.9 mph - N/A Rain Rain
4:35 AM 53.6 °F - 53.6 °F 100% 29.85 in 10.0 mi South 9.2 mph - N/A Rain Rain
4:55 AM 53.6 °F - 53.6 °F 100% 29.84 in 10.0 mi South 11.5 mph 16.1 mph N/A Rain Rain
5:15 AM 53.6 °F - 53.6 °F 100% 29.82 in 7.0 mi South 8.1 mph - N/A Rain Rain
5:35 AM 53.6 °F - 51.8 °F 94% 29.83 in 10.0 mi South 9.2 mph 16.1 mph N/A Rain Rain
5:55 AM 53.6 °F - 53.6 °F 100% 29.84 in 5.0 mi SSW 9.2 mph - N/A Rain Rain
6:15 AM 53.6 °F - 53.6 °F 100% 29.84 in 5.0 mi West 9.2 mph - N/A   Heavy Drizzle
6:35 AM 51.8 °F - 51.8 °F 100% 29.85 in 5.0 mi West 6.9 mph - N/A Rain Heavy Rain
6:55 AM 51.8 °F - 51.8 °F 100% 29.85 in 5.0 mi WSW 5.8 mph - N/A Rain Heavy Rain
7:15 AM 51.8 °F - 51.8 °F 100% 29.85 in 10.0 mi WSW 3.5 mph - N/A Rain Rain
7:35 AM 51.8 °F - 51.8 °F 100% 29.86 in 5.0 mi West 11.5 mph 16.1 mph N/A Rain Heavy Rain
7:55 AM 50.0 °F - 48.2 °F 94% 29.88 in 4.0 mi WNW 9.2 mph - N/A Rain Heavy Rain
8:15 AM 46.4 °F 41.5 °F 46.4 °F 100% 29.88 in 5.0 mi WNW 10.4 mph - N/A Rain Rain
8:35 AM 44.6 °F 39.2 °F 44.6 °F 100% 29.90 in 5.0 mi West 10.4 mph 23.0 mph N/A Rain Light Rain
8:55 AM 44.6 °F 41.4 °F 44.6 °F 100% 29.91 in 5.0 mi WNW 5.8 mph - N/A Rain Rain
9:15 AM 44.6 °F 42.2 °F 44.6 °F 100% 29.91 in 7.0 mi WNW 4.6 mph - N/A Rain Rain
9:35 AM 44.6 °F 38.8 °F 44.6 °F 100% 29.92 in 7.0 mi West 11.5 mph - N/A Rain Rain
9:55 AM 44.6 °F 40.2 °F 42.8 °F 93% 29.92 in 10.0 mi West 8.1 mph - N/A Rain Light Rain
10:15 AM 44.6 °F 43.1 °F 42.8 °F 93% 29.89 in 10.0 mi WSW 3.5 mph - N/A   Light Drizzle
10:35 AM 44.6 °F 43.1 °F 42.8 °F 93% 29.89 in 10.0 mi SSE 3.5 mph - N/A Rain Light Rain
11:15 AM 44.6 °F 39.7 °F 42.8 °F 93% 29.92 in 10.0 mi WSW 9.2 mph - N/A Rain Light Rain
11:35 AM 44.6 °F 43.1 °F 42.8 °F 93% 29.86 in 10.0 mi SW 3.5 mph - N/A Rain Light Rain
11:55 AM 44.6 °F 40.7 °F 42.8 °F 93% 29.92 in 10.0 mi WNW 6.9 mph - N/A Rain Light Rain
12:15 PM 44.6 °F 40.2 °F 42.8 °F 93% 29.93 in 10.0 mi West 8.1 mph - N/A   Overcast
12:35 PM 42.8 °F - 42.8 °F 100% 29.91 in 10.0 mi Calm Calm - N/A   Overcast
12:55 PM 42.8 °F 39.3 °F 42.8 °F 100% 29.92 in 10.0 mi West 5.8 mph - N/A   Overcast
1:15 PM 44.6 °F 40.7 °F 42.8 °F 93% 29.90 in 10.0 mi WNW 6.9 mph - N/A   Overcast
1:35 PM 42.8 °F 37.0 °F 41.0 °F 93% 29.90 in 10.0 mi NW 10.4 mph - N/A   Overcast
1:55 PM 42.8 °F 37.0 °F 41.0 °F 93% 29.88 in 10.0 mi NW 10.4 mph - N/A   Overcast
2:15 PM 42.8 °F 37.5 °F 41.0 °F 93% 29.88 in 10.0 mi WNW 9.2 mph - N/A   Overcast
2:35 PM 42.8 °F 36.2 °F 41.0 °F 93% 29.88 in 10.0 mi WNW 12.7 mph 17.3 mph N/A   Overcast
2:55 PM 42.8 °F 37.0 °F 37.4 °F 81% 29.88 in 10.0 mi WNW 10.4 mph - N/A   Overcast
3:15 PM 44.6 °F 39.2 °F 37.4 °F 76% 29.88 in 10.0 mi West 10.4 mph 17.3 mph N/A   Mostly Cloudy
3:35 PM 44.6 °F 40.2 °F 37.4 °F 76% 29.88 in 10.0 mi WSW 8.1 mph - N/A   Overcast
3:55 PM 44.6 °F 40.2 °F 37.4 °F 76% 29.89 in 10.0 mi WNW 8.1 mph - N/A   Overcast
4:15 PM 44.6 °F 41.4 °F 37.4 °F 76% 29.89 in 10.0 mi West 5.8 mph - N/A   Overcast
4:35 PM 46.4 °F 41.9 °F 35.6 °F 66% 29.89 in 10.0 mi West 9.2 mph - N/A   Overcast
4:55 PM 46.4 °F 42.4 °F 35.6 °F 66% 29.90 in 10.0 mi WNW 8.1 mph - N/A   Overcast
5:15 PM 46.4 °F 42.4 °F 35.6 °F 66% 29.90 in 10.0 mi West 8.1 mph - N/A   Overcast
5:35 PM 46.4 °F 41.9 °F 35.6 °F 66% 29.91 in 10.0 mi WNW 9.2 mph - N/A   Overcast
5:55 PM 46.4 °F 41.9 °F 35.6 °F 66% 29.91 in 10.0 mi NNW 9.2 mph - N/A   Overcast
6:15 PM 46.4 °F 41.9 °F 35.6 °F 66% 29.92 in 10.0 mi NW 9.2 mph - N/A   Overcast
6:35 PM 44.6 °F 38.8 °F 35.6 °F 71% 29.93 in 10.0 mi NNW 11.5 mph - N/A   Overcast
6:55 PM 42.8 °F 37.0 °F 33.8 °F 70% 29.94 in 10.0 mi NNW 10.4 mph - N/A   Overcast
7:15 PM 42.8 °F 36.6 °F 33.8 °F 70% 29.95 in 10.0 mi NNW 11.5 mph - N/A   Overcast
7:35 PM 42.8 °F 37.5 °F 33.8 °F 70% 29.96 in 10.0 mi NNW 9.2 mph - N/A   Overcast
8:15 PM 41.0 °F 33.5 °F 32.0 °F 70% 29.98 in 10.0 mi NNW 13.8 mph - N/A   Overcast
8:35 PM 41.0 °F 34.3 °F 32.0 °F 70% 29.99 in 10.0 mi NNW 11.5 mph - N/A   Overcast
8:55 PM 41.0 °F 34.7 °F 32.0 °F 70% 30.00 in 10.0 mi NW 10.4 mph - N/A   Overcast
9:15 PM 41.0 °F 34.3 °F 32.0 °F 70% 30.00 in 10.0 mi NNW 11.5 mph - N/A   Overcast
9:35 PM 39.2 °F 33.0 °F 32.0 °F 75% 30.01 in 10.0 mi NNW 9.2 mph - N/A   Mostly Cloudy
10:15 PM 37.4 °F 32.8 °F 32.0 °F 81% 30.02 in 10.0 mi NNW 5.8 mph - N/A   Overcast
10:35 PM 37.4 °F 32.8 °F 32.0 °F 81% 30.02 in 10.0 mi NW 5.8 mph - N/A   Overcast
10:55 PM 37.4 °F 33.8 °F 32.0 °F 81% 30.01 in 10.0 mi NNW 4.6 mph - N/A   Overcast
11:15 PM 37.4 °F 33.8 °F 32.0 °F 81% 30.02 in 10.0 mi NW 4.6 mph - N/A   Overcast
11:35 PM 37.4 °F 32.8 °F 32.0 °F 81% 30.02 in 10.0 mi NNW 5.8 mph - N/A   Scattered Clouds
11:55 PM 35.6 °F 30.7 °F 32.0 °F 87% 30.02 in 10.0 mi NW 5.8 mph - N/A   Clear